Retour au catalogue

ISO DEB

ActifHEO
NORAD 24700·DEBRIS·🇪🇺 EU

Lancé Nov 17, 1995 depuis Guiana Space Centre

Loading…

Prochains Passages (prochaines 24 heures)

TLE

FraisSource: Space-Track

Époque: Sep 11, 2026, 18:56 UTC

1 24700U 95062C   26254.78918096 -.00000166  00000-0  00000-0 0  9996
2 24700   4.7276  23.3795 8254746  40.7124 203.8033  1.00122341 43857

Suivez ISO DEB en temps réel avec AllMySat

Download on the App Store